weather.gov     
National Weather Service

Regional Weather Roundup
NWS Homepage
This page is being discontinued on March 12, 2014.
The same data is available at this site. Please update your bookmarks.
Thank you, and we apologize for the inconvenience.
Please send an email to SR-SRH.Webmaster@noaa.gov with any concerns.


Current Version
Previous Version:    01  02  03  04  05  06  07  08  09  10  11  12  13  14  15  16  17  
[Printable]
791
ASPQ40 PGUM 021712
RWRPQ
WEATHER ROUNDUP FOR THE MARIANAS AND MICRONESIA
NATIONAL WEATHER SERVICE TIYAN GU
300 AM CHST WED SEP 03 2014

GUZ001>004-021800-
MARIANA ISLANDS-

CITY           SKY/WX    TMP DP  RH WIND       PRES   REMARKS
GUAM AIRPORT   CLEAR     79  77  94 S3        29.78F
ANDERSEN AFB   CLEAR     75  73  94 S8        29.78F
ROTA AIRPORT   NOT AVBL
TINIAN AP      NOT AVBL
SAIPAN AP      CLEAR     81  77  89 SW6       29.78S

$$

PMZ161-021800-
REPUBLIC OF PALAU-

CITY           SKY/WX    TMP DP  RH WIND       PRES   REMARKS
KOROR AP       LGT RAIN  77  77 100 S10G22    29.83F
KOROR WSO      LGT RAIN  79  73  83 S12       29.83F

$$

PMZ171>174-021800-
FEDERATED STATES OF MICRONESIA-

CITY           SKY/WX    TMP DP  RH WIND       PRES   REMARKS
YAP AIRPORT    CLOUDY    79  75  89 SW16      29.77F
CHUUK AP       MOCLDY    82  77  83 VRB6      29.78S HX  91
POHNPEI AP     NOT AVBL
POHNPEI WSO    HVY RAIN  75  75 100 SE3       29.80S
KOSRAE AP      NOT AVBL

$$

PMZ181-021800-
REPUBLIC OF THE MARSHALL ISLANDS-

CITY           SKY/WX    TMP DP  RH WIND       PRES   REMARKS
KWAJALEIN AP   PTCLDY    82  75  78 E16       29.78S
MAJURO AP      NOT AVBL
MAJURO WSO     MOCLDY    82  75  78 E8        29.76R

$$





U.S. Dept. of Commerce
NOAA National Weather Service
1325 East West Highway
Silver Spring, MD 20910
E-mail: w-nws.webmaster@noaa.gov
Page last modified: May 16, 2007
NATIONAL WEATHER SERVICE: for Safety, for Work, for Fun - FOR LIFE